Vorticity
2 0 3 7 2 3 2 2 2 2 2 3 4 4 4 3 4 3 2 2 1 1 1 0 5 9 7 6 7 9 9 10 9 8 4 1 3 3 2 5 4 3 4
1 2 4 -1 2 3 3 3 4 5 5 4 4 3 3 3 3 3 3 3 3 2 2 2 2 3 1 0 5 7 6 6 6 6 9 13 8 4 1 4 2 4 4
2 3 3 6 7 6 6 5 4 4 3 3 2 2 2 2 2 2 2 3 3 4 4 4 4 4 3 2 2 3 2 2 2 2 4 6 5 10 11 6 2 3 5
2 2 1 3 3 3 3 2 2 2 2 2 1 2 2 2 2 2 3 3 4 4 4 5 4 4 4 4 4 4 3 3 2 2 2 2 2 3 5 6 9 10 4
6 6 5 5 4 4 2 1 2 2 2 2 2 2 2 2 3 3 4 5 5 4 4 3 3 4 4 4 4 4 3 4 4 5 4 2 2 2 2 2 3 5 6
2 2 2 2 2 3 4 4 4 4 4 4 5 5 5 6 6 6 6 6 5 3 5 5 4 6 8 7 7 8 8 9 8 8 7 7 8 6 3 3 3 3 2
4 4 4 4 4 5 4 4 4 4 4 4 4 5 6 7 7 8 8 8 8 7 8 8 7 8 8 8 11 12 12 11 11 11 12 13 11 11 12 9 6 4 3
3 3 3 3 4 3 4 3 3 5 6 7 8 6 4 8 10 9 8 8 8 8 7 6 7 8 8 8 8 7 6 5 4 4 4 4 5 6 7 9 9 11 11
3 3 3 4 4 3 4 3 7 9 4 4 3 1 6 10 9 8 8 9 8 8 7 8 9 8 7 6 5 4 4 4 4 5 5 4 5 3 4 3 3 4 4
3 4 4 3 3 3 3 10 8 7 2 1 4 19 13 12 9 8 6 6 6 5 6 6 6 5 5 5 4 4 4 3 3 3 3 3 3 3 3 4 4 4 3
3 4 3 2 4 3 4 1 8 6 4 17 18 13 11 8 7 4 5 4 5 6 6 6 5 5 4 4 3 3 2 2 2 3 4 3 3 3 4 4 5 6 4
3 2 3 3 3 3 1 9 6 16 18 13 8 11 9 4 3 3 6 5 5 5 5 4 3 3 3 4 4 4 4 5 7 7 8 8 9 8 8 7 8 7 7
2 4 4 2 1 -1 8 9 18 10 7 9 12 6 0 2 4 3 4 5 5 7 5 4 5 6 6 6 5 6 8 11 12 12 12 16 17 18 17 18 14 16 17
3 3 3 1 1 7 7 15 8 10 15 11 2 0 2 2 4 6 6 5 4 3 4 8 8 5 13 18 23 28 29 30 27 24 22 17 21 18 13 14 19 19 16
3 3 3 1 6 9 14 9 10 12 5 2 2 2 2 5 6 6 4 4 4 4 11 10 26 38 32 30 23 12 5 4 7 9 9 12 8 6 8 8 11 14 15
4 3 5 4 7 10 9 8 9 5 2 1 2 4 5 6 5 4 7 4 4 11 19 32 9 3 -0 7 5 9 8 6 7 9 6 5 19 14 12 9 8 7 6
4 6 4 8 10 11 8 7 6 3 1 3 3 5 5 4 6 9 6 -0 17 37 10 3 4 9 9 16 13 3 2 -2 16 20 22 24 2 9 6 1 0 -0 1
5 -2 5 9 13 10 8 5 2 2 2 2 4 4 4 8 10 6 4 30 18 9 5 3 9 12 12 8 3 -1 7 9 24 6 -1 5 9 4 2 2 3 2 3
2 5 7 13 12 9 6 3 1 2 2 3 4 5 10 11 4 8 32 16 3 7 8 9 16 12 10 6 4 3 4 14 8 5 7 7 4 4 3 3 -1 2 6
1 9 8 12 9 7 4 1 2 2 2 3 6 7 8 9 21 31 7 5 6 8 14 16 13 6 2 7 5 4 6 9 9 6 4 6 7 3 2 -1 2 -4 15
3 8 10 10 7 6 3 3 2 2 5 5 6 13 26 34 16 8 6 6 3 18 8 12 10 1 -1 3 6 4 5 10 7 8 5 4 1 1 3 2 -1 4 15
10 8 12 8 6 4 3 1 4 6 2 8 24 33 5 5 2 4 7 9 13 8 5 7 6 5 7 7 8 4 7 10 8 5 2 1 -1 2 12 14 14 7 7
11 11 8 7 4 3 3 5 4 2 14 32 11 5 13 15 15 10 9 7 14 3 -0 4 9 11 9 7 6 9 9 8 4 4 2 4 11 7 9 10 6 9 7
12 8 5 4 4 3 6 2 4 15 33 6 6 9 11 9 21 29 22 14 7 7 8 9 10 8 10 8 5 2 2 3 4 7 6 3 10 10 5 3 3 3 4
7 6 4 3 4 6 2 6 12 31 5 6 7 7 5 4 3 1 4 8 10 9 7 7 5 5 4 4 5 5 5 4 7 9 8 2 1 4 9 11 11 13 14
7 4 4 5 5 2 5 11 23 6 3 7 8 4 5 3 3 6 7 7 6 5 5 5 6 5 5 5 5 5 8 12 17 20 20 18 19 16 9 4 7 8 6
Height
5886 5885 5885 5885 5884 5884 5884 5884 5883 5884 5884 5883 5883 5882 5882 5881 5880 5879 5879 5878 5877 5876 5875 5874 5873 5872 5871 5870 5869 5868 5867 5867 5866 5865 5865 5864 5863 5862 5862 5861 5861 5861 5860
5886 5885 5886 5885 5885 5885 5885 5884 5884 5884 5884 5883 5882 5882 5881 5881 5880 5879 5878 5877 5876 5875 5874 5873 5872 5870 5869 5868 5867 5866 5865 5864 5863 5862 5861 5861 5860 5859 5859 5859 5858 5857 5857
5885 5885 5886 5885 5885 5885 5885 5885 5884 5884 5883 5883 5882 5882 5881 5880 5879 5878 5877 5876 5874 5873 5872 5871 5869 5868 5867 5866 5865 5864 5863 5862 5860 5859 5858 5857 5857 5856 5855 5855 5854 5854 5854
5885 5885 5885 5885 5885 5885 5885 5885 5884 5883 5883 5882 5881 5881 5880 5879 5878 5876 5875 5873 5872 5871 5869 5868 5867 5865 5864 5863 5862 5860 5859 5859 5857 5856 5855 5854 5853 5852 5851 5850 5850 5850 5850
5884 5885 5885 5886 5885 5885 5885 5884 5883 5882 5881 5881 5880 5879 5878 5876 5875 5874 5872 5871 5869 5868 5866 5865 5863 5862 5860 5859 5857 5856 5854 5853 5853 5852 5851 5850 5850 5849 5848 5847 5846 5845 5845
5884 5884 5885 5885 5884 5884 5883 5883 5881 5880 5879 5878 5877 5876 5875 5873 5872 5870 5869 5867 5865 5863 5862 5860 5859 5857 5856 5854 5853 5851 5849 5847 5848 5847 5846 5845 5843 5844 5843 5843 5842 5841 5840
5883 5883 5883 5883 5883 5882 5881 5880 5880 5878 5877 5876 5874 5873 5872 5870 5868 5867 5865 5863 5862 5860 5858 5856 5854 5852 5851 5849 5848 5846 5845 5844 5842 5841 5840 5840 5839 5838 5838 5837 5836 5835 5835
5882 5882 5881 5881 5881 5880 5879 5878 5877 5875 5874 5872 5871 5870 5868 5866 5865 5863 5862 5860 5858 5856 5854 5852 5850 5848 5846 5844 5843 5842 5840 5839 5837 5835 5835 5834 5833 5832 5831 5831 5829 5829 5828
5880 5880 5880 5879 5879 5879 5877 5876 5874 5872 5870 5869 5868 5866 5864 5862 5860 5859 5858 5856 5854 5852 5850 5848 5846 5844 5841 5840 5838 5837 5835 5833 5832 5830 5829 5828 5827 5826 5825 5823 5822 5822 5822
5878 5878 5878 5878 5877 5876 5875 5873 5871 5868 5866 5865 5863 5861 5859 5857 5856 5855 5854 5852 5850 5848 5845 5843 5841 5838 5836 5834 5832 5830 5828 5826 5825 5823 5822 5821 5820 5819 5818 5817 5815 5815 5814
5875 5875 5875 5874 5874 5873 5871 5869 5867 5865 5863 5860 5858 5856 5855 5854 5852 5851 5849 5847 5845 5843 5840 5837 5835 5832 5830 5828 5825 5823 5821 5818 5817 5815 5814 5812 5811 5810 5809 5809 5807 5806 5806
5872 5872 5872 5871 5870 5869 5867 5865 5862 5860 5858 5855 5854 5853 5851 5850 5849 5847 5845 5842 5840 5837 5834 5831 5827 5825 5823 5820 5817 5815 5812 5810 5808 5806 5805 5804 5802 5801 5800 5799 5798 5798 5797
5869 5869 5868 5867 5866 5864 5862 5860 5857 5855 5853 5851 5849 5849 5848 5846 5844 5841 5839 5836 5833 5830 5828 5824 5820 5818 5815 5811 5809 5806 5804 5802 5799 5798 5796 5794 5792 5791 5790 5790 5789 5788 5788
5866 5865 5864 5863 5862 5860 5857 5854 5852 5851 5849 5848 5846 5845 5843 5841 5838 5835 5833 5829 5826 5823 5820 5816 5811 5808 5805 5802 5800 5797 5795 5793 5791 5789 5788 5786 5785 5784 5783 5782 5782 5781 5780
5862 5862 5860 5859 5857 5855 5852 5850 5848 5847 5845 5844 5842 5840 5838 5835 5832 5829 5826 5822 5819 5815 5811 5807 5803 5799 5796 5795 5793 5791 5790 5788 5787 5786 5784 5782 5781 5780 5779 5778 5777 5776 5775
5858 5858 5856 5854 5852 5850 5847 5846 5844 5843 5841 5839 5837 5835 5832 5829 5826 5822 5819 5815 5811 5807 5803 5800 5798 5795 5793 5791 5789 5788 5786 5785 5783 5781 5779 5777 5776 5775 5774 5773 5772 5771 5770
5854 5853 5851 5850 5847 5845 5843 5841 5840 5838 5836 5834 5832 5829 5826 5822 5819 5815 5811 5806 5803 5800 5797 5795 5793 5791 5789 5787 5785 5784 5783 5780 5777 5775 5773 5772 5772 5771 5770 5769 5768 5766 5764
5849 5849 5847 5844 5843 5841 5839 5837 5836 5834 5831 5829 5826 5823 5819 5815 5811 5807 5803 5799 5796 5795 5792 5790 5788 5786 5784 5783 5781 5780 5777 5775 5772 5770 5769 5768 5767 5766 5765 5764 5763 5761 5758
5844 5843 5841 5839 5838 5836 5834 5833 5831 5829 5826 5823 5820 5816 5812 5807 5803 5799 5796 5794 5792 5790 5787 5784 5782 5781 5780 5778 5777 5774 5772 5769 5768 5766 5765 5763 5762 5761 5760 5758 5756 5754 5751
5839 5838 5836 5834 5833 5831 5830 5828 5826 5824 5820 5817 5813 5808 5804 5799 5795 5792 5791 5789 5787 5784 5781 5778 5777 5775 5775 5773 5771 5769 5767 5765 5762 5761 5759 5758 5756 5755 5753 5752 5749 5746 5743
5834 5832 5830 5829 5828 5826 5825 5823 5820 5818 5814 5810 5805 5800 5796 5792 5790 5788 5786 5784 5782 5779 5777 5774 5772 5770 5769 5767 5765 5763 5761 5759 5757 5755 5753 5752 5750 5748 5745 5743 5741 5738 5735
5828 5826 5825 5824 5823 5822 5819 5817 5815 5811 5807 5802 5798 5794 5791 5788 5786 5783 5781 5779 5776 5774 5772 5771 5768 5765 5763 5761 5760 5757 5755 5754 5751 5748 5746 5744 5742 5739 5736 5733 5731 5729 5726
5822 5820 5820 5819 5818 5816 5814 5811 5808 5804 5800 5796 5793 5790 5787 5783 5780 5777 5775 5773 5771 5769 5767 5765 5762 5760 5757 5754 5751 5749 5747 5745 5744 5742 5738 5735 5733 5730 5727 5724 5721 5719 5717
5816 5815 5815 5814 5812 5810 5808 5805 5801 5797 5794 5791 5789 5785 5782 5778 5774 5771 5769 5768 5766 5764 5761 5758 5756 5753 5751 5747 5744 5741 5739 5736 5733 5731 5728 5725 5723 5721 5718 5715 5712 5708 5705
5810 5810 5810 5808 5805 5803 5801 5798 5794 5791 5789 5786 5783 5780 5777 5775 5772 5769 5766 5763 5761 5758 5755 5752 5749 5746 5744 5741 5738 5735 5731 5728 5725 5722 5718 5714 5711 5708 5706 5703 5700 5697 5694
5805 5805 5803 5801 5799 5797 5794 5790 5788 5786 5784 5781 5779 5776 5773 5770 5768 5765 5762 5758 5755 5752 5749 5746 5742 5739 5736 5732 5729 5725 5722 5719 5715 5712 5708 5704 5701 5697 5693 5690 5687 5685 5682